| time (UTC) | temp C | wind direction | speed KPH | gust KPH | rain 1hr cm | rain 24hr cm | rain mn cm | humidity % | barometer mb |
| 20260510230747 | 16 | 301 | 0.0 | 0.0 | 0.00 | 0.00 | 0.00 | 78 | 1040.6 |
| 20260510230242 | 16 | 310 | 1.6 | 3.2 | 0.00 | 0.00 | 0.00 | 78 | 1040.5 |
| 20260510225740 | 16 | 223 | 0.0 | 1.6 | 0.00 | 0.00 | 0.00 | 79 | 1040.5 |
| 20260510225235 | 16 | 349 | 1.6 | 3.2 | 0.00 | 0.00 | 0.00 | 76 | 1040.2 |
| 20260510224731 | 16 | 335 | 3.2 | 3.2 | 0.00 | 0.00 | 0.00 | 77 | 1040.2 |
| 20260510224228 | 16 | 292 | 0.0 | 1.6 | 0.00 | 0.00 | 0.00 | 78 | 1040.3 |
| 20260510223725 | 16 | 319 | 1.6 | 1.6 | 0.00 | 0.00 | 0.00 | 76 | 1040.3 |
| 20260510223223 | 16 | 271 | 0.0 | 1.6 | 0.00 | 0.00 | 0.00 | 77 | 1040.3 |
| 20260510222720 | 16 | 269 | 1.6 | 1.6 | 0.00 | 0.00 | 0.00 | 76 | 1040.3 |
| 20260510222217 | 16 | 269 | 1.6 | 1.6 | 0.00 | 0.00 | 0.00 | 76 | 1040.3 |
| 20260510221712 | 16 | 204 | 0.0 | 1.6 | 0.00 | 0.00 | 0.00 | 75 | 1040.4 |
| 20260510221209 | 17 | 218 | 0.0 | 3.2 | 0.00 | 0.00 | 0.00 | 77 | 1040.4 |
| 20260510220705 | 17 | 351 | 1.6 | 3.2 | 0.00 | 0.00 | 0.00 | 77 | 1040.4 |
| 20260510220200 | 17 | 295 | 0.0 | 0.0 | 0.00 | 0.00 | 0.00 | 76 | 1040.2 |
| 20260510215657 | 17 | 102 | 1.6 | 1.6 | 0.00 | 0.00 | 0.00 | 75 | 1040.3 |
| 20260510215156 | 17 | 342 | 3.2 | 3.2 | 0.00 | 0.00 | 0.00 | 75 | 1040.6 |
| 20260510214652 | 17 | 14 | 3.2 | 3.2 | 0.00 | 0.00 | 0.00 | 76 | 1040.2 |
| 20260510214149 | 17 | 318 | 1.6 | 6.4 | 0.00 | 0.00 | 0.00 | 74 | 1040.2 |
| 20260510213646 | 17 | 68 | 1.6 | 4.8 | 0.00 | 0.00 | 0.00 | 70 | 1040.0 |
| 20260510213143 | 18 | 41 | 6.4 | 6.4 | 0.00 | 0.00 | 0.00 | 68 | 1040.0 |
| 20260510212639 | 17 | 343 | 3.2 | 4.8 | 0.00 | 0.00 | 0.00 | 70 | 1040.1 |
| 20260510212136 | 17 | 343 | 3.2 | 9.7 | 0.00 | 0.00 | 0.00 | 70 | 1040.2 |
| 20260510211632 | 17 | 133 | 4.8 | 6.4 | 0.00 | 0.00 | 0.00 | 68 | 1039.9 |
| 20260510211127 | 17 | 20 | 4.8 | 11.3 | 0.00 | 0.00 | 0.00 | 68 | 1039.6 |
| 20260510210624 | 18 | 43 | 3.2 | 8.0 | 0.00 | 0.00 | 0.00 | 80 | 1040.0 |
| 20260510210120 | 18 | 213 | 3.2 | 3.2 | 0.00 | 0.00 | 0.00 | 82 | 1039.5 |
| 20260510205618 | 18 | 213 | 3.2 | 3.2 | 0.00 | 0.00 | 0.00 | 82 | 1039.6 |
| 20260510205114 | 18 | 213 | 3.2 | 3.2 | 0.00 | 0.00 | 0.00 | 82 | 1039.5 |
| 20260510204610 | 18 | 48 | 1.6 | 3.2 | 0.00 | 0.00 | 0.00 | 82 | 1039.1 |
| 20260510204107 | 18 | 210 | 1.6 | 3.2 | 0.00 | 0.00 | 0.00 | 83 | 1039.3 |
| 20260510203559 | 18 | 100 | 3.2 | 4.8 | 0.00 | 0.00 | 0.00 | 82 | 1039.2 |
| 20260510203056 | 18 | 254 | 1.6 | 3.2 | 0.00 | 0.00 | 0.00 | 81 | 1039.4 |
| 20260510202554 | 18 | 307 | 3.2 | 3.2 | 0.00 | 0.00 | 0.00 | 82 | 1039.2 |
| 20260510202051 | 18 | 211 | 1.6 | 3.2 | 0.00 | 0.00 | 0.00 | 82 | 1039.3 |
| 20260510201548 | 19 | 202 | 3.2 | 3.2 | 0.00 | 0.00 | 0.00 | 80 | 1039.3 |
| 20260510201045 | 18 | 220 | 3.2 | 4.8 | 0.00 | 0.00 | 0.00 | 80 | 1039.2 |
| 20260510200541 | 20 | 221 | 3.2 | 4.8 | 0.00 | 0.00 | 0.00 | 79 | 1039.3 |
| 20260510200039 | 20 | 207 | 1.6 | 4.8 | 0.00 | 0.00 | 0.00 | 77 | 1039.3 |
| 20260510195536 | 20 | 193 | 3.2 | 3.2 | 0.00 | 0.00 | 0.00 | 75 | 1039.4 |
| 20260510195032 | 19 | 219 | 1.6 | 1.6 | 0.00 | 0.00 | 0.00 | 77 | 1039.4 |
| 20260510194527 | 19 | 183 | 3.2 | 4.8 | 0.00 | 0.00 | 0.00 | 79 | 1039.4 |
| 20260510194024 | 18 | 281 | 0.0 | 1.6 | 0.00 | 0.00 | 0.00 | 80 | 1039.4 |
| 20260510193519 | 18 | 195 | 3.2 | 3.2 | 0.00 | 0.00 | 0.00 | 79 | 1039.4 |
| 20260510193015 | 18 | 268 | 3.2 | 3.2 | 0.00 | 0.00 | 0.00 | 81 | 1039.5 |
| 20260510192510 | 18 | 165 | 1.6 | 4.8 | 0.00 | 0.00 | 0.00 | 81 | 1039.9 |
| 20260510192006 | 18 | 200 | 1.6 | 4.8 | 0.00 | 0.00 | 0.00 | 80 | 1039.8 |
| 20260510191502 | 18 | 266 | 3.2 | 3.2 | 0.00 | 0.00 | 0.00 | 78 | 1039.8 |
| 20260510190959 | 18 | 310 | 0.0 | 1.6 | 0.00 | 0.00 | 0.00 | 78 | 1039.5 |
| 20260510190456 | 18 | 243 | 3.2 | 3.2 | 0.00 | 0.00 | 0.00 | 78 | 1039.6 |
| 20260510185953 | 19 | 158 | 1.6 | 1.6 | 0.00 | 0.00 | 0.00 | 77 | 1039.8 |
| 20260510185450 | 19 | 200 | 3.2 | 3.2 | 0.00 | 0.00 | 0.00 | 77 | 1039.6 |
| 20260510184948 | 18 | 309 | 3.2 | 4.8 | 0.00 | 0.00 | 0.00 | 76 | 1039.6 |
| 20260510184445 | 18 | 200 | 0.0 | 1.6 | 0.00 | 0.00 | 0.00 | 76 | 1039.9 |
| 20260510183944 | 18 | 200 | 0.0 | 1.6 | 0.00 | 0.00 | 0.00 | 76 | 1039.9 |
| 20260510183441 | 18 | 208 | 4.8 | 6.4 | 0.00 | 0.00 | 0.00 | 76 | 1039.8 |
| 20260510182936 | 19 | 268 | 3.2 | 6.4 | 0.00 | 0.00 | 0.00 | 75 | 1039.8 |
| 20260510182432 | 20 | 217 | 4.8 | 8.0 | 0.00 | 0.00 | 0.00 | 70 | 1039.6 |
| 20260510181928 | 20 | 253 | 3.2 | 8.0 | 0.00 | 0.00 | 0.00 | 71 | 1039.6 |
| 20260510181426 | 20 | 252 | 3.2 | 8.0 | 0.00 | 0.00 | 0.00 | 72 | 1039.9 |
| 20260510180922 | 20 | 210 | 1.6 | 4.8 | 0.00 | 0.00 | 0.00 | 72 | 1039.8 |
| 20260510180419 | 20 | 241 | 3.2 | 6.4 | 0.00 | 0.00 | 0.00 | 74 | 1040.0 |
| 20260510175916 | 20 | 302 | 3.2 | 6.4 | 0.00 | 0.00 | 0.00 | 75 | 1040.0 |
| 20260510175412 | 19 | 90 | 0.0 | 3.2 | 0.00 | 0.00 | 0.00 | 79 | 1040.0 |
| 20260510174908 | 17 | 316 | 3.2 | 4.8 | 0.00 | 0.00 | 0.00 | 80 | 1040.3 |
| 20260510174406 | 18 | 315 | 6.4 | 6.4 | 0.00 | 0.00 | 0.00 | 78 | 1040.1 |
| 20260510173902 | 18 | 264 | 3.2 | 3.2 | 0.00 | 0.00 | 0.00 | 81 | 1039.8 |
| 20260510173358 | 18 | 241 | 3.2 | 3.2 | 0.00 | 0.00 | 0.00 | 81 | 1039.8 |
| 20260510172854 | 18 | 241 | 3.2 | 3.2 | 0.00 | 0.00 | 0.00 | 81 | 1039.8 |
| 20260510172350 | 18 | 180 | 3.2 | 6.4 | 0.00 | 0.00 | 0.00 | 79 | 1039.5 |
| 20260510171847 | 18 | 277 | 0.0 | 1.6 | 0.00 | 0.00 | 0.00 | 81 | 1039.6 |
| 20260510171344 | 18 | 277 | 0.0 | 1.6 | 0.00 | 0.00 | 0.00 | 81 | 1039.5 |
| 20260510170841 | 18 | 308 | 1.6 | 4.8 | 0.00 | 0.00 | 0.00 | 79 | 1039.6 |
| 20260510170337 | 18 | 248 | 3.2 | 3.2 | 0.00 | 0.00 | 0.00 | 79 | 1040.0 |
| 20260510165832 | 18 | 241 | 4.8 | 6.4 | 0.00 | 0.00 | 0.00 | 77 | 1039.9 |
| 20260510165324 | 19 | 223 | 4.8 | 6.4 | 0.00 | 0.00 | 0.00 | 78 | 1039.9 |
| 20260510164821 | 17 | 312 | 0.0 | 4.8 | 0.00 | 0.00 | 0.00 | 81 | 1040.0 |
| 20260510164319 | 18 | 262 | 4.8 | 4.8 | 0.00 | 0.00 | 0.00 | 81 | 1039.9 |
| 20260510163818 | 18 | 203 | 0.0 | 6.4 | 0.00 | 0.00 | 0.00 | 81 | 1039.9 |
| 20260510163315 | 18 | 262 | 1.6 | 6.4 | 0.00 | 0.00 | 0.00 | 79 | 1040.0 |
| 20260510162814 | 18 | 218 | 6.4 | 6.4 | 0.00 | 0.00 | 0.00 | 79 | 1040.0 |
| 20260510162312 | 18 | 232 | 4.8 | 4.8 | 0.00 | 0.00 | 0.00 | 79 | 1040.0 |
| 20260510161807 | 18 | 258 | 4.8 | 6.4 | 0.00 | 0.00 | 0.00 | 80 | 1039.9 |
| 20260510161303 | 17 | 213 | 8.0 | 8.0 | 0.00 | 0.00 | 0.00 | 81 | 1040.0 |
| 20260510160800 | 17 | 275 | 3.2 | 4.8 | 0.00 | 0.00 | 0.00 | 82 | 1040.0 |
| 20260510160257 | 17 | 258 | 6.4 | 6.4 | 0.00 | 0.00 | 0.00 | 81 | 1040.1 |
| 20260510155757 | 17 | 167 | 0.0 | 4.8 | 0.00 | 0.00 | 0.00 | 83 | 1040.1 |
| 20260510155253 | 16 | 277 | 3.2 | 3.2 | 0.00 | 0.00 | 0.00 | 85 | 1040.1 |
| 20260510154749 | 16 | 325 | 4.8 | 4.8 | 0.00 | 0.00 | 0.00 | 84 | 1040.2 |
| 20260510154245 | 15 | 258 | 3.2 | 4.8 | 0.00 | 0.00 | 0.00 | 89 | 1040.5 |
| 20260510153740 | 15 | 257 | 4.8 | 6.4 | 0.00 | 0.00 | 0.00 | 88 | 1040.5 |
| 20260510153236 | 16 | 260 | 4.8 | 8.0 | 0.00 | 0.00 | 0.00 | 87 | 1040.4 |
| 20260510152733 | 15 | 358 | 1.6 | 6.4 | 0.00 | 0.00 | 0.00 | 88 | 1040.4 |
| 20260510152229 | 15 | 196 | 3.2 | 4.8 | 0.00 | 0.00 | 0.00 | 89 | 1040.4 |
| 20260510151726 | 15 | 14 | 0.0 | 3.2 | 0.00 | 0.00 | 0.00 | 89 | 1040.3 |
| 20260510151225 | 14 | 272 | 4.8 | 4.8 | 0.00 | 0.00 | 0.00 | 91 | 1040.8 |
| 20260510150720 | 14 | 252 | 3.2 | 4.8 | 0.00 | 0.00 | 0.00 | 91 | 1040.5 |
| 20260510150215 | 14 | 231 | 3.2 | 4.8 | 0.00 | 0.00 | 0.00 | 92 | 1040.6 |
| 20260510145712 | 13 | 87 | 1.6 | 3.2 | 0.00 | 0.00 | 0.00 | 95 | 1040.5 |
| 20260510145208 | 12 | 215 | 0.0 | 3.2 | 0.00 | 0.00 | 0.00 | 96 | 1040.4 |
| 20260510144705 | 12 | 203 | 3.2 | 4.8 | 0.00 | 0.00 | 0.00 | 94 | 1040.3 |
| 20260510144201 | 12 | 254 | 0.0 | 3.2 | 0.00 | 0.00 | 0.00 | 94 | 1040.4 |
| 20260510143656 | 13 | 85 | 3.2 | 3.2 | 0.00 | 0.00 | 0.00 | 94 | 1040.4 |
| 20260510143153 | 12 | 87 | 0.0 | 3.2 | 0.00 | 0.00 | 0.00 | 94 | 1040.4 |
| 20260510142649 | 13 | 206 | 0.0 | 3.2 | 0.00 | 0.00 | 0.00 | 95 | 1040.2 |
| 20260510142146 | 13 | 229 | 1.6 | 3.2 | 0.00 | 0.00 | 0.00 | 94 | 1040.1 |
| 20260510141643 | 13 | 189 | 3.2 | 4.8 | 0.00 | 0.00 | 0.00 | 93 | 1040.2 |
| 20260510141142 | 13 | 268 | 0.0 | 4.8 | 0.00 | 0.00 | 0.00 | 93 | 1040.0 |
| 20260510140637 | 13 | 218 | 0.0 | 1.6 | 0.00 | 0.00 | 0.00 | 93 | 1040.0 |
| 20260510140137 | 13 | 254 | 3.2 | 3.2 | 0.00 | 0.00 | 0.00 | 92 | 1039.8 |
| 20260510135632 | 13 | 254 | 3.2 | 3.2 | 0.00 | 0.00 | 0.00 | 92 | 1040.1 |
| 20260510135129 | 13 | 7 | 0.0 | 3.2 | 0.00 | 0.00 | 0.00 | 93 | 1039.9 |
| 20260510134626 | 12 | 306 | 0.0 | 0.0 | 0.00 | 0.00 | 0.00 | 99 | 1039.8 |
| 20260510134123 | 12 | 306 | 0.0 | 0.0 | 0.00 | 0.00 | 0.00 | 99 | 1039.8 |
| 20260510133619 | 12 | 306 | 0.0 | 0.0 | 0.00 | 0.00 | 0.00 | 99 | 1039.9 |
| 20260510133114 | 12 | 306 | 0.0 | 0.0 | 0.00 | 0.00 | 0.00 | 99 | 1039.8 |
| 20260510132612 | 12 | 306 | 0.0 | 0.0 | 0.00 | 0.00 | 0.00 | 99 | 1039.9 |
| 20260510132109 | 12 | 306 | 0.0 | 0.0 | 0.00 | 0.00 | 0.00 | 99 | 1039.8 |
| 20260510131606 | 12 | 306 | 0.0 | 0.0 | 0.00 | 0.00 | 0.00 | 99 | 1040.1 |
| 20260510131103 | 12 | 306 | 0.0 | 0.0 | 0.00 | 0.00 | 0.00 | 99 | 1040.2 |
| 20260510130559 | 11 | 302 | 1.6 | 3.2 | 0.00 | 0.00 | 0.00 | 99 | 1040.0 |
| 20260510130057 | 11 | 302 | 1.6 | 3.2 | 0.00 | 0.00 | 0.00 | 99 | 1039.8 |
| 20260510125553 | 11 | 302 | 1.6 | 3.2 | 0.00 | 0.00 | 0.00 | 99 | 1039.9 |
| 20260510125049 | 11 | 170 | 0.0 | 1.6 | 0.00 | 0.00 | 0.00 | 99 | 1039.8 |
| 20260510124546 | 11 | 12 | 0.0 | 1.6 | 0.00 | 0.00 | 0.00 | 99 | 1039.8 |
| 20260510124044 | 11 | 12 | 0.0 | 3.2 | 0.00 | 0.00 | 0.00 | 99 | 1039.8 |
| 20260510123539 | 11 | 317 | 0.0 | 0.0 | 0.00 | 0.00 | 0.00 | 99 | 1039.9 |
| 20260510123035 | 11 | 320 | 1.6 | 1.6 | 0.00 | 0.00 | 0.00 | 99 | 1039.6 |
| 20260510122531 | 11 | 355 | 1.6 | 1.6 | 0.00 | 0.00 | 0.00 | 99 | 1039.3 |
| 20260510122027 | 11 | 340 | 0.0 | 3.2 | 0.00 | 0.00 | 0.00 | 99 | 1039.2 |
| 20260510121524 | 11 | 322 | 3.2 | 3.2 | 0.00 | 0.00 | 0.00 | 99 | 1039.5 |
| 20260510121022 | 11 | 7 | 0.0 | 0.0 | 0.00 | 0.00 | 0.00 | 99 | 1039.6 |
| 20260510120519 | 10 | 308 | 3.2 | 4.8 | 0.00 | 0.00 | 0.00 | 99 | 1039.5 |
| 20260510120015 | 11 | 344 | 3.2 | 3.2 | 0.00 | 0.00 | 0.00 | 99 | 1039.3 |
| 20260510115512 | 10 | 36 | 3.2 | 3.2 | 0.00 | 0.00 | 0.00 | 99 | 1039.3 |
| 20260510115008 | 10 | 29 | 3.2 | 3.2 | 0.00 | 0.00 | 0.00 | 99 | 1038.9 |
| 20260510114504 | 10 | 54 | 0.0 | 1.6 | 0.00 | 0.00 | 0.00 | 99 | 1038.9 |
| 20260510114000 | 10 | 304 | 1.6 | 4.8 | 0.00 | 0.00 | 0.00 | 99 | 1039.0 |
| 20260510113455 | 10 | 290 | 3.2 | 3.2 | 0.00 | 0.00 | 0.00 | 99 | 1038.9 |
| 20260510112953 | 10 | 289 | 0.0 | 3.2 | 0.00 | 0.00 | 0.00 | 99 | 1038.8 |
| 20260510112450 | 10 | 57 | 0.0 | 1.6 | 0.00 | 0.00 | 0.00 | 99 | 1038.9 |
| 20260510111947 | 10 | 298 | 1.6 | 3.2 | 0.00 | 0.00 | 0.00 | 99 | 1038.9 |
| 20260510111443 | 10 | 306 | 0.0 | 0.0 | 0.00 | 0.00 | 0.00 | 99 | 1039.1 |
| 20260510110939 | 10 | 342 | 1.6 | 1.6 | 0.00 | 0.00 | 0.00 | 99 | 1038.9 |
| 20260510110435 | 10 | 228 | 1.6 | 3.2 | 0.00 | 0.00 | 0.00 | 99 | 1039.0 |
| 20260510105931 | 10 | 281 | 0.0 | 3.2 | 0.00 | 0.00 | 0.00 | 99 | 1038.9 |
| 20260510105426 | 10 | 40 | 0.0 | 1.6 | 0.00 | 0.00 | 0.00 | 99 | 1038.9 |
| 20260510104922 | 10 | 323 | 1.6 | 3.2 | 0.00 | 0.00 | 0.00 | 99 | 1038.8 |
| 20260510104419 | 10 | 273 | 0.0 | 3.2 | 0.00 | 0.00 | 0.00 | 99 | 1038.8 |
| 20260510103915 | 10 | 267 | 0.0 | 0.0 | 0.00 | 0.00 | 0.00 | 99 | 1038.7 |
| 20260510103408 | 10 | 334 | 1.6 | 3.2 | 0.00 | 0.00 | 0.00 | 99 | 1038.7 |
| 20260510102903 | 9 | 289 | 0.0 | 3.2 | 0.00 | 0.00 | 0.00 | 99 | 1038.6 |
| 20260510102358 | 9 | 1 | 0.0 | 3.2 | 0.00 | 0.00 | 0.00 | 99 | 1038.5 |
| 20260510101856 | 9 | 17 | 3.2 | 3.2 | 0.00 | 0.00 | 0.00 | 99 | 1038.6 |
| 20260510101354 | 9 | 250 | 0.0 | 3.2 | 0.00 | 0.00 | 0.00 | 99 | 1038.6 |
| 20260510100851 | 9 | 254 | 0.0 | 1.6 | 0.00 | 0.00 | 0.00 | 99 | 1038.8 |
| 20260510100348 | 9 | 252 | 0.0 | 1.6 | 0.00 | 0.00 | 0.00 | 99 | 1038.7 |
| 20260510095844 | 9 | 285 | 0.0 | 1.6 | 0.00 | 0.00 | 0.00 | 99 | 1038.8 |
| 20260510095339 | 9 | 323 | 0.0 | 1.6 | 0.00 | 0.00 | 0.00 | 99 | 1038.9 |
| 20260510094838 | 10 | 17 | 3.2 | 3.2 | 0.00 | 0.00 | 0.00 | 99 | 1039.0 |
| 20260510094334 | 10 | 22 | 3.2 | 3.2 | 0.00 | 0.00 | 0.00 | 99 | 1039.1 |
| 20260510093830 | 10 | 74 | 0.0 | 3.2 | 0.00 | 0.00 | 0.00 | 99 | 1039.0 |
| 20260510093326 | 10 | 14 | 0.0 | 1.6 | 0.00 | 0.00 | 0.00 | 99 | 1039.0 |
| 20260510092822 | 10 | 300 | 0.0 | 3.2 | 0.00 | 0.00 | 0.00 | 99 | 1039.0 |
| 20260510092318 | 10 | 10 | 3.2 | 3.2 | 0.00 | 0.00 | 0.00 | 99 | 1039.0 |
| 20260510091814 | 10 | 34 | 3.2 | 3.2 | 0.00 | 0.00 | 0.00 | 99 | 1039.1 |
| 20260510091312 | 10 | 61 | 0.0 | 0.0 | 0.00 | 0.00 | 0.00 | 99 | 1039.2 |
| 20260510090808 | 10 | 15 | 1.6 | 3.2 | 0.00 | 0.00 | 0.00 | 99 | 1038.9 |
| 20260510090305 | 10 | 51 | 0.0 | 3.2 | 0.00 | 0.00 | 0.00 | 99 | 1038.9 |
| 20260510085801 | 10 | 240 | 0.0 | 3.2 | 0.00 | 0.00 | 0.00 | 99 | 1038.8 |
| 20260510085254 | 10 | 349 | 1.6 | 3.2 | 0.00 | 0.00 | 0.00 | 99 | 1039.2 |
| 20260510084751 | 10 | 29 | 0.0 | 3.2 | 0.00 | 0.00 | 0.00 | 99 | 1039.2 |
| 20260510084248 | 10 | 4 | 1.6 | 3.2 | 0.00 | 0.00 | 0.00 | 99 | 1039.1 |
| 20260510083744 | 10 | 91 | 0.0 | 1.6 | 0.00 | 0.00 | 0.00 | 99 | 1039.0 |
| 20260510083242 | 10 | 352 | 3.2 | 3.2 | 0.00 | 0.00 | 0.00 | 99 | 1039.1 |
| 20260510082737 | 10 | 30 | 3.2 | 3.2 | 0.00 | 0.00 | 0.00 | 99 | 1039.1 |
| 20260510082234 | 10 | 31 | 1.6 | 3.2 | 0.00 | 0.00 | 0.00 | 99 | 1038.9 |
| 20260510081733 | 10 | 33 | 3.2 | 4.8 | 0.00 | 0.00 | 0.00 | 99 | 1038.8 |
| 20260510081229 | 9 | 28 | 3.2 | 3.2 | 0.00 | 0.00 | 0.00 | 99 | 1038.5 |
| 20260510080724 | 9 | 33 | 0.0 | 3.2 | 0.00 | 0.00 | 0.00 | 99 | 1038.5 |
| 20260510080220 | 9 | 74 | 0.0 | 3.2 | 0.00 | 0.00 | 0.00 | 99 | 1038.5 |
| 20260510075717 | 10 | 17 | 0.0 | 1.6 | 0.00 | 0.00 | 0.00 | 99 | 1038.3 |
| 20260510075215 | 10 | 56 | 0.0 | 3.2 | 0.00 | 0.00 | 0.00 | 99 | 1038.3 |
| 20260510074712 | 10 | 45 | 0.0 | 0.0 | 0.00 | 0.00 | 0.00 | 99 | 1038.4 |
| 20260510074208 | 10 | 32 | 0.0 | 3.2 | 0.00 | 0.00 | 0.00 | 99 | 1038.3 |
| 20260510073705 | 10 | 17 | 1.6 | 3.2 | 0.00 | 0.00 | 0.00 | 99 | 1038.4 |
| 20260510073200 | 10 | 0 | 1.6 | 3.2 | 0.00 | 0.00 | 0.00 | 99 | 1038.4 |
| 20260510072657 | 10 | 7 | 0.0 | 1.6 | 0.00 | 0.00 | 0.00 | 99 | 1038.4 |
| 20260510072153 | 10 | 300 | 0.0 | 1.6 | 0.00 | 0.00 | 0.00 | 99 | 1038.5 |
| 20260510071650 | 10 | 48 | 1.6 | 1.6 | 0.00 | 0.00 | 0.00 | 99 | 1038.5 |
| 20260510071147 | 10 | 40 | 0.0 | 1.6 | 0.00 | 0.00 | 0.00 | 99 | 1038.4 |
| 20260510070644 | 10 | 48 | 0.0 | 1.6 | 0.00 | 0.00 | 0.00 | 99 | 1038.6 |
| 20260510070142 | 10 | 254 | 0.0 | 3.2 | 0.00 | 0.00 | 0.00 | 99 | 1038.6 |
| 20260510065638 | 10 | 59 | 0.0 | 1.6 | 0.00 | 0.00 | 0.00 | 99 | 1038.5 |
| 20260510065134 | 10 | 305 | 0.0 | 1.6 | 0.00 | 0.00 | 0.00 | 99 | 1038.5 |
| 20260510064631 | 10 | 44 | 0.0 | 3.2 | 0.00 | 0.00 | 0.00 | 99 | 1038.6 |
| 20260510064127 | 10 | 25 | 1.6 | 3.2 | 0.00 | 0.00 | 0.00 | 99 | 1038.4 |
| 20260510063624 | 10 | 20 | 3.2 | 3.2 | 0.00 | 0.00 | 0.00 | 99 | 1038.3 |
| 20260510063121 | 10 | 29 | 3.2 | 3.2 | 0.00 | 0.00 | 0.00 | 99 | 1038.3 |
| 20260510062617 | 10 | 344 | 1.6 | 3.2 | 0.00 | 0.00 | 0.00 | 99 | 1038.3 |
| 20260510062113 | 10 | 7 | 1.6 | 1.6 | 0.00 | 0.00 | 0.00 | 99 | 1038.1 |
| 20260510061609 | 10 | 36 | 0.0 | 4.8 | 0.00 | 0.00 | 0.00 | 99 | 1038.2 |
| 20260510061106 | 10 | 39 | 0.0 | 1.6 | 0.00 | 0.00 | 0.00 | 99 | 1037.8 |
| 20260510060602 | 10 | 51 | 0.0 | 1.6 | 0.00 | 0.00 | 0.00 | 99 | 1037.9 |
| 20260510060059 | 10 | 74 | 0.0 | 1.6 | 0.00 | 0.00 | 0.00 | 99 | 1038.0 |
| 20260510055554 | 10 | 27 | 3.2 | 3.2 | 0.00 | 0.00 | 0.00 | 99 | 1038.0 |
| 20260510055053 | 10 | 74 | 0.0 | 1.6 | 0.00 | 0.00 | 0.00 | 99 | 1038.2 |
| 20260510054548 | 10 | 24 | 1.6 | 1.6 | 0.00 | 0.00 | 0.00 | 99 | 1038.3 |
| 20260510054044 | 10 | 1 | 1.6 | 3.2 | 0.00 | 0.00 | 0.00 | 99 | 1038.3 |
| 20260510053543 | 10 | 34 | 0.0 | 1.6 | 0.00 | 0.00 | 0.00 | 99 | 1038.3 |
| 20260510053041 | 10 | 48 | 0.0 | 1.6 | 0.00 | 0.00 | 0.00 | 99 | 1038.4 |
| 20260510052536 | 10 | 41 | 1.6 | 1.6 | 0.00 | 0.00 | 0.00 | 99 | 1038.3 |
| 20260510052033 | 10 | 36 | 1.6 | 3.2 | 0.00 | 0.00 | 0.00 | 99 | 1038.3 |
| 20260510051528 | 10 | 74 | 0.0 | 0.0 | 0.00 | 0.00 | 0.00 | 99 | 1038.4 |
| 20260510051025 | 10 | 20 | 1.6 | 3.2 | 0.00 | 0.00 | 0.00 | 99 | 1038.4 |
| 20260510050523 | 10 | 29 | 0.0 | 1.6 | 0.00 | 0.00 | 0.00 | 99 | 1038.5 |
| 20260510050019 | 10 | 48 | 0.0 | 1.6 | 0.00 | 0.00 | 0.00 | 99 | 1038.4 |
| 20260510045517 | 10 | 54 | 0.0 | 1.6 | 0.00 | 0.00 | 0.00 | 99 | 1038.3 |
| 20260510045012 | 10 | 300 | 0.0 | 0.0 | 0.00 | 0.00 | 0.00 | 99 | 1038.5 |
| 20260510044510 | 10 | 332 | 0.0 | 1.6 | 0.00 | 0.00 | 0.00 | 99 | 1038.4 |
| 20260510044008 | 10 | 23 | 1.6 | 1.6 | 0.00 | 0.00 | 0.00 | 99 | 1038.4 |
| 20260510043503 | 10 | 29 | 0.0 | 1.6 | 0.00 | 0.00 | 0.00 | 99 | 1038.2 |
| 20260510043002 | 10 | 8 | 1.6 | 3.2 | 0.00 | 0.00 | 0.00 | 99 | 1038.5 |
| 20260510042457 | 10 | 6 | 3.2 | 3.2 | 0.00 | 0.00 | 0.00 | 99 | 1038.3 |
| 20260510041952 | 10 | 104 | 0.0 | 0.0 | 0.00 | 0.00 | 0.00 | 99 | 1038.2 |
| 20260510041450 | 10 | 58 | 1.6 | 3.2 | 0.00 | 0.00 | 0.00 | 99 | 1038.3 |
| 20260510040948 | 10 | 40 | 0.0 | 0.0 | 0.00 | 0.00 | 0.00 | 99 | 1038.2 |
| 20260510040444 | 10 | 61 | 0.0 | 0.0 | 0.00 | 0.00 | 0.00 | 99 | 1038.2 |
| 20260510035940 | 10 | 29 | 0.0 | 1.6 | 0.00 | 1.60 | 1.60 | 99 | 1037.9 |
| 20260510035436 | 10 | 289 | 0.0 | 1.6 | 0.00 | 1.60 | 1.60 | 99 | 1038.0 |
| 20260510034931 | 10 | 348 | 1.6 | 1.6 | 0.00 | 1.60 | 1.60 | 99 | 1037.8 |
| 20260510034430 | 10 | 32 | 0.0 | 1.6 | 0.00 | 1.60 | 1.60 | 99 | 1038.1 |
| 20260510033926 | 10 | 15 | 1.6 | 3.2 | 0.00 | 1.60 | 1.60 | 99 | 1038.1 |
| 20260510033422 | 10 | 26 | 3.2 | 3.2 | 0.00 | 1.60 | 1.60 | 99 | 1038.0 |
| 20260510032919 | 10 | 57 | 0.0 | 1.6 | 0.00 | 1.60 | 1.60 | 99 | 1038.0 |
| 20260510032416 | 10 | 40 | 0.0 | 3.2 | 0.00 | 1.60 | 1.60 | 99 | 1038.0 |
| 20260510031911 | 10 | 74 | 0.0 | 1.6 | 0.00 | 1.60 | 1.60 | 99 | 1038.2 |
| 20260510031406 | 10 | 289 | 0.0 | 3.2 | 0.00 | 1.60 | 1.60 | 99 | 1038.4 |
| 20260510030901 | 10 | 40 | 0.0 | 1.6 | 0.00 | 1.60 | 1.60 | 99 | 1038.4 |
| 20260510030358 | 10 | 283 | 0.0 | 3.2 | 0.00 | 1.60 | 1.60 | 99 | 1038.5 |
| 20260510025856 | 10 | 72 | 0.0 | 4.8 | 0.00 | 1.60 | 1.60 | 99 | 1038.2 |
| 20260510025353 | 10 | 108 | 3.2 | 3.2 | 0.00 | 1.60 | 1.60 | 99 | 1038.1 |
| 20260510024850 | 10 | 67 | 1.6 | 3.2 | 0.00 | 1.60 | 1.60 | 99 | 1038.1 |
| 20260510024346 | 10 | 300 | 0.0 | 3.2 | 0.00 | 1.60 | 1.60 | 99 | 1038.1 |
| 20260510023842 | 10 | 40 | 0.0 | 1.6 | 0.00 | 1.60 | 1.60 | 99 | 1038.0 |
| 20260510023339 | 10 | 294 | 1.6 | 1.6 | 0.00 | 1.60 | 1.60 | 99 | 1038.1 |
| 20260510022837 | 10 | 343 | 1.6 | 1.6 | 0.00 | 1.60 | 1.60 | 99 | 1038.1 |
| 20260510022336 | 10 | 272 | 0.0 | 3.2 | 0.00 | 1.60 | 1.60 | 99 | 1038.2 |
| 20260510021834 | 10 | 169 | 3.2 | 3.2 | 0.00 | 1.60 | 1.60 | 99 | 1038.2 |
| 20260510021333 | 10 | 291 | 0.0 | 1.6 | 0.00 | 1.60 | 1.60 | 99 | 1038.1 |
| 20260510020829 | 10 | 1 | 1.6 | 1.6 | 0.00 | 1.60 | 1.60 | 99 | 1038.2 |
| 20260510020329 | 10 | 285 | 0.0 | 3.2 | 0.00 | 1.60 | 1.60 | 99 | 1038.1 |
| 20260510015825 | 10 | 27 | 0.0 | 3.2 | 0.00 | 1.60 | 1.60 | 99 | 1038.1 |
| 20260510015321 | 10 | 349 | 1.6 | 3.2 | 0.00 | 1.60 | 1.60 | 99 | 1038.2 |
| 20260510014816 | 10 | 147 | 0.0 | 3.2 | 0.00 | 1.60 | 1.60 | 99 | 1038.1 |
| 20260510014314 | 10 | 350 | 1.6 | 3.2 | 0.00 | 1.60 | 1.60 | 99 | 1038.1 |
| 20260510013810 | 10 | 350 | 1.6 | 3.2 | 0.00 | 1.60 | 1.60 | 99 | 1038.2 |
| 20260510013305 | 10 | 278 | 0.0 | 0.0 | 0.00 | 1.60 | 1.60 | 99 | 1038.3 |
| 20260510012800 | 10 | 293 | 3.2 | 4.8 | 0.00 | 1.60 | 1.60 | 99 | 1038.0 |
| 20260510012255 | 10 | 346 | 3.2 | 4.8 | 0.00 | 1.60 | 1.60 | 99 | 1038.1 |
| 20260510011754 | 10 | 40 | 0.0 | 1.6 | 0.00 | 1.60 | 1.60 | 99 | 1038.0 |
| 20260510011250 | 10 | 20 | 0.0 | 3.2 | 0.00 | 1.60 | 1.60 | 99 | 1037.9 |
| 20260510010747 | 10 | 194 | 0.0 | 3.2 | 0.00 | 1.60 | 1.60 | 99 | 1037.9 |
| 20260510010244 | 10 | 176 | 1.6 | 3.2 | 0.00 | 1.60 | 1.60 | 99 | 1037.9 |
| 20260510005741 | 10 | 37 | 0.0 | 1.6 | 0.00 | 1.60 | 1.60 | 99 | 1037.9 |
| 20260510005237 | 10 | 54 | 0.0 | 3.2 | 0.00 | 1.60 | 1.60 | 99 | 1037.8 |
| 20260510004735 | 10 | 41 | 3.2 | 4.8 | 0.00 | 1.60 | 1.60 | 99 | 1037.8 |
| 20260510004233 | 10 | 260 | 0.0 | 0.0 | 0.00 | 1.60 | 1.60 | 99 | 1037.7 |
| 20260510003730 | 10 | 214 | 0.0 | 3.2 | 0.00 | 1.60 | 1.60 | 99 | 1037.6 |
| 20260510003226 | 10 | 40 | 0.0 | 0.0 | 0.00 | 1.60 | 1.60 | 99 | 1037.7 |
| 20260510002725 | 10 | 151 | 0.0 | 3.2 | 0.00 | 1.60 | 1.60 | 99 | 1037.6 |
| 20260510002223 | 10 | 33 | 0.0 | 3.2 | 0.00 | 1.60 | 1.60 | 99 | 1037.5 |
| 20260510001719 | 10 | 358 | 0.0 | 3.2 | 0.00 | 1.60 | 1.60 | 99 | 1037.5 |
| 20260510001218 | 10 | 146 | 1.6 | 1.6 | 0.00 | 1.60 | 1.60 | 99 | 1037.5 |
| 20260510000713 | 10 | 261 | 1.6 | 3.2 | 0.00 | 1.60 | 1.60 | 99 | 1037.5 |
| 20260510000211 | 10 | 22 | 0.0 | 3.2 | 0.00 | 1.60 | 1.60 | 99 | 1037.5 |
| 20260509235707 | 11 | 117 | 4.8 | 6.4 | 0.05 | 1.60 | 1.60 | 99 | 1037.5 |
| 20260509235204 | 11 | 230 | 0.0 | 3.2 | 0.05 | 1.60 | 1.60 | 99 | 1037.4 |
| 20260509234700 | 11 | 200 | 3.2 | 3.2 | 0.00 | 1.60 | 1.60 | 99 | 1037.4 |
| 20260509234157 | 11 | 249 | 0.0 | 4.8 | 0.13 | 1.60 | 1.60 | 99 | 1037.3 |
| 20260509233655 | 11 | 191 | 1.6 | 1.6 | 0.13 | 1.60 | 1.60 | 99 | 1037.3 |
| 20260509233153 | 11 | 299 | 0.0 | 4.8 | 0.00 | 1.57 | 1.57 | 99 | 1037.5 |
| 20260509232648 | 11 | 288 | 1.6 | 3.2 | 0.05 | 1.57 | 1.57 | 99 | 1037.6 |
| 20260509232145 | 11 | 151 | 6.4 | 8.0 | 0.13 | 1.57 | 1.57 | 99 | 1037.4 |
| 20260509231642 | 11 | 171 | 0.0 | 3.2 | 0.13 | 1.57 | 1.57 | 99 | 1037.7 |